Location: Hains Lake
(37.8540°N, 99.8578°W)
Time: 08:13:07
(UTC+00:00)

Vanguard 1 - Pass Details

Date: 24 April 2021
Orbit: 649 x 3834 km, 34.2° (Epoch: 04 May)

Event Time Altitude Azimuth Distance (km) Brightness Sun altitude
Rises 02:43:27 0° 286° (WNW) 7,534 16.2 -15.3°
Reaches altitude 10° 02:49:04 10° 278° (W) 6,749 15.4 -16.3°
Maximum altitude 03:07:56 34° 224° (SW) 5,093 13.7 -19.4°
Drops below altitude 10° 03:24:46 10° 168° (SSE) 5,954 13.6 -22.1°
Enters shadow 03:24:48 10° 168° (SSE) 5,958 13.6 -22.1°
